BV3BA-13 Weather Reports


time (UTC)temp
C
wind
direction
speed
KPH
gust
KPH
rain 1hr
cm
rain 24hr
cm
rain mn
cm
humidity
%
barometer
mb
20260504081704 22 50 14.5 45.1 0.00 0.05 0.05 65 1010.8
20260504080703 22 50 14.5 41.8 0.00 0.05 0.05 64 1010.6
20260504050704 25 50 16.1 53.1 0.00 0.05 0.05 50 1011.7
20260504045704 25 40 20.9 53.1 0.00 0.05 0.05 49 1012.0
20260504044704 25 50 14.5 53.1 0.00 0.05 0.05 51 1011.8
20260504043704 25 50 14.5 53.1 0.00 0.05 0.05 53 1012.0
20260504042704 25 60 14.5 53.1 0.00 0.05 0.05 52 1012.1
20260504041703 25 40 17.7 53.1 0.00 0.05 0.05 56 1012.4
20260504040703 24 40 19.3 41.8 0.00 0.05 0.05 53 1012.3
20260504035703 24 50 16.1 41.8 0.00 0.05 0.05 54 1012.7
20260504034704 24 40 17.7 41.8 0.00 0.05 0.05 55 1013.0
20260504033703 23 40 14.5 41.8 0.00 0.05 0.05 57 1012.7
20260504032704 23 40 16.1 41.8 0.00 0.05 0.05 54 1012.9
20260504031704 23 40 16.1 41.8 0.00 0.05 0.05 54 1012.8
20260504030703 22 50 14.5 33.8 0.00 0.05 0.05 56 1013.2
20260504025703 23 40 14.5 33.8 0.00 0.05 0.05 54 1013.2
20260504024703 23 50 17.7 33.8 0.00 0.05 0.05 54 1013.1
20260504023704 23 50 9.7 33.8 0.00 0.05 0.05 53 1013.3
20260504022704 23 60 14.5 33.8 0.00 0.05 0.05 57 1013.3
20260504021703 22 70 9.7 33.8 0.00 0.05 0.05 60 1013.6
20260504020704 21 60 11.3 45.1 0.00 0.05 0.05 67 1013.7
20260504015703 21 60 14.5 45.1 0.00 0.05 0.05 67 1013.7
20260504014703 21 60 9.7 45.1 0.00 0.05 0.05 68 1014.0
20260504013704 21 60 9.7 45.1 0.00 0.05 0.05 70 1014.0
20260504012704 21 60 12.9 45.1 0.00 0.05 0.05 72 1013.8
20260504011703 21 50 11.3 45.1 0.00 0.05 0.05 73 1014.4
20260504010704 21 40 6.4 41.8 0.00 0.05 0.05 76 1014.1
20260504005704 21 30 11.3 41.8 0.00 0.05 0.05 75 1013.7
20260504004704 21 30 14.5 41.8 0.00 0.05 0.05 74 1013.5
20260504003704 21 40 17.7 41.8 0.00 0.05 0.05 74 1013.3
20260504002703 21 40 14.5 41.8 0.00 0.05 0.05 73 1013.1
20260504001703 21 50 12.9 41.8 0.00 0.05 0.05 75 1013.6
20260504000703 21 40 14.5 30.6 0.00 0.05 0.05 76 1013.3
20260503235704 21 40 12.9 30.6 0.00 0.05 0.05 74 1013.6
20260503234703 21 40 11.3 30.6 0.00 0.05 0.05 75 1013.5
20260503233704 21 40 9.7 30.6 0.00 0.05 0.05 75 1013.3
20260503232704 21 50 9.7 30.6 0.00 0.05 0.05 75 1013.1
20260503231703 21 70 9.7 30.6 0.00 0.05 0.05 75 1012.9
20260503230703 20 50 9.7 20.9 0.00 0.05 0.05 77 1012.9
20260503225704 20 50 11.3 20.9 0.00 0.05 0.05 78 1012.5
20260503224703 20 40 9.7 20.9 0.05 0.05 0.05 79 1012.4
20260503223703 20 40 8.0 20.9 0.05 0.05 0.05 81 1012.6
20260503222703 20 30 9.7 20.9 0.05 0.05 0.05 85 1012.6
20260503221704 21 30 6.4 20.9 0.05 0.05 0.05 80 1012.7
20260503220711 20 30 4.8 27.4 0.05 0.05 0.05 82 1012.6
20260503215703 21 60 9.7 27.4 0.05 0.05 0.05 80 1012.1
20260503214703 20 40 8.0 27.4 0.00 0.00 0.00 80 1012.1
20260503213704 21 70 6.4 27.4 0.00 0.00 0.00 79 1012.0
20260503212704 21 70 4.8 27.4 0.00 0.00 0.00 78 1011.9
20260503211703 21 60 9.7 27.4 0.00 0.00 0.00 74 1011.9
20260503210704 22 50 8.0 24.1 0.00 0.00 0.00 69 1011.9
20260503205704 22 80 9.7 24.1 0.00 0.00 0.00 70 1011.5
20260503204703 22 70 11.3 24.1 0.00 0.00 0.00 70 1011.6
20260503203703 22 70 11.3 24.1 0.00 0.00 0.00 71 1011.3
20260503202703 22 70 12.9 24.1 0.00 0.00 0.00 72 1011.3
20260503201704 22 70 11.3 24.1 0.00 0.00 0.00 73 1011.3
20260503200703 22 60 6.4 24.1 0.00 0.00 0.00 74 1011.1
20260503195703 22 70 8.0 24.1 0.00 0.00 0.00 75 1010.9
20260503194703 22 80 9.7 24.1 0.00 0.00 0.00 73 1010.7
20260503193703 22 70 9.7 24.1 0.00 0.00 0.00 72 1010.7
20260503192703 22 90 6.4 24.1 0.00 0.00 0.00 72 1010.5
20260503191703 22 70 4.8 24.1 0.00 0.00 0.00 77 1010.7
20260503190703 22 90 6.4 27.4 0.00 0.00 0.00 78 1010.6
20260503185703 22 90 6.4 27.4 0.00 0.00 0.00 79 1010.7
20260503184704 22 70 9.7 27.4 0.00 0.00 0.00 79 1010.6
20260503183703 22 70 6.4 27.4 0.00 0.00 0.00 78 1010.4
20260503182704 22 30 6.4 27.4 0.00 0.00 0.00 77 1010.6
20260503181703 22 40 9.7 27.4 0.00 0.00 0.00 78 1010.5
20260503180703 22 60 11.3 24.1 0.00 0.00 0.00 77 1010.6
20260503175704 22 60 8.0 24.1 0.00 0.00 0.00 78 1010.5
20260503174703 22 50 11.3 24.1 0.00 0.00 0.00 78 1010.4
20260503173703 23 50 8.0 24.1 0.00 0.00 0.00 78 1010.3
20260503172707 23 40 9.7 24.1 0.00 0.00 0.00 76 1010.5
20260503171704 23 20 9.7 24.1 0.00 0.00 0.00 76 1010.3
20260503170704 23 30 8.0 25.7 0.00 0.00 0.00 77 1010.1
20260503150703 25 40 6.4 14.5 0.00 0.00 0.00 85 1009.8
20260503130704 25 340 3.2 19.3 0.00 0.00 0.00 89 1008.5
20260503110704 26 310 6.4 25.7 0.00 0.00 0.00 90 1007.4